Weather Roundup
Issued by NWS

Home | Current Version | Previous Version | Text Only | Print | Product List | Glossary On
Versions: 1 2 3 4 5 6 7 8 9 10 11 12 13 14 15 16 17 18 19 20 21 22 23 24 25 26 27 28 29 30 31 32 33 34 35 36 37 38 39 40 41 42 43 44 45 46 47 48 49 50
020
NZUS93 KARX 301010
HRRWXR

CURRENT HOURLY OBSERVATIONS ACROSS
MUCH OF THE UPPER MISSISSIPPI VALLEY
NATIONAL WEATHER SERVICE LA CROSSE WI
500 AM CDT THU MAR 30 2017


...SOUTHEAST MINNESOTA...


CITY           SKY/WX    TMP DP  RH WIND       PRES   REMARKS
ROCHESTER      CLOUDY    36  35  96 NE16G23   29.88F WCI  26
ROCHESTER/MAYO CLOUDY    36  37 100 NE10      29.90F WCI  29
WINONA         CLOUDY    37  36  93 E9        29.93F WCI  31
AUSTIN         RAIN      36  34  93 E12G18    29.86F WCI  27
ALBERT LEA     DRIZZLE   36  36 100 NE15      29.86F WCI  26
DODGE CENTER   CLOUDY    36  34  93 NE20      29.87F FOG     WCI  25
PRESTON        CLOUDY    35  33  91 NE10G22   29.87F WCI  28
OWATONNA       LGT RAIN  36  34  93 NE14      29.90F WCI  27
FARIBAULT      LGT RAIN  37  36  93 NE12      29.93F WCI  30
$$

...ELSEWHERE IN MINNESOTA...


CITY           SKY/WX    TMP DP  RH WIND       PRES   REMARKS
MINNEAPOLIS    LGT RAIN  39  36  89 E10       29.97F FOG     WCI  32
INTNL FALLS    CLEAR     28  24  85 CALM      30.03F
DULUTH         CLOUDY    31  29  92 E10       30.06S WCI  22
RED WING       RAIN      39  36  87 E8        29.96F WCI  34
REDWOOD FALLS  CLOUDY    39  36  89 NE8       29.94F FOG     WCI  33
MANKATO        LGT RAIN  38  35  89 NE15      29.92F WCI  29
WORTHINGTON    CLOUDY    36  35  96 NE18      29.87F WCI  26
FAIRMONT       CLOUDY    37  35  92 NE13      29.88F WCI  29
$$

...SOUTHWEST WISCONSIN...


CITY           SKY/WX    TMP DP  RH WIND       PRES   REMARKS
LA CROSSE      LGT RAIN  39  35  86 NE12G18   29.91F WCI  32
PRAIRIE DU CHI LGT RAIN  38  37  97 NE6G17    29.85F WCI  34
BOSCOBEL       CLOUDY    40  32  73 NE13G20   29.85F WCI  32
LONE ROCK      CLOUDY    40  36  86 E22       29.86F WCI  30
PLATTEVILLE    CLOUDY    40  40  99 E24G32    29.80F WCI  30
FORT MC COY    LGT RAIN  36  35  97 E12       29.93F WCI  27
CAMP DOUGLAS   LGT RAIN  36  36 100 NE16      29.93F WCI  26
MAUSTON-NEW LI CLOUDY    37  35  94 NE6       29.93F WCI  32
VIROQUA        CLOUDY    36  36  98 E20G26    29.86F WCI  25
WIS DELLS      CLOUDY    37  36  96 E9G16     29.91F WCI  30
$$

...ELSEWHERE IN WISCONSIN...


CITY           SKY/WX    TMP DP  RH WIND       PRES   REMARKS
MILWAUKEE      RAIN      37  34  89 NE15      29.96F FOG     WCI  28
MADISON        LGT RAIN  38  36  92 E16       29.89F WCI  29
GREEN BAY      CLOUDY    36  36 100 NE8       30.06F WCI  30
EAU CLAIRE     CLOUDY    37  33  85 E14       29.97F WCI  28
BLACK RVR FLS  DRIZZLE   36  36 100 NE9       29.95F WCI  29
MEDFORD        LGT SNOW  32  30  93 NE10      29.99F WCI  24
WAUSAU         LGT SNOW  32  31  96 E9        30.01F FOG     WCI  24
WIS RAPIDS     LGT RAIN  35  35 100 E13       29.99F WCI  26
MARSHFIELD     CLOUDY    34  32  92 E15       29.97F WCI  24
RICE LAKE      CLOUDY    38  31  76 E7        30.02F WCI  33
$$

...NORTHEAST IOWA...


CITY           SKY/WX    TMP DP  RH WIND       PRES   REMARKS
WATERLOO       CLOUDY    41  38  89 E14       29.78F
DUBUQUE        CLOUDY    40  38  93 E14G26    29.76F WCI  32
DECORAH        CLOUDY    36  36 100 NE12G17   29.84F WCI  27
MASON CITY     CLOUDY    37  35  92 NE15      29.83F FOG     WCI  28
CHARLES CITY   CLOUDY    37  37 100 NE14G22   29.83S WCI  29
OELWEIN        CLOUDY    39  39 100 E16G24    29.79S WCI  30
$$

...ELSEWHERE IN IOWA...


CITY           SKY/WX    TMP DP  RH WIND       PRES   REMARKS
DES MOINES     CLOUDY    44  40  85 E15G28    29.66F
IOWA CITY      TSTM      44  41  89 E10       29.75R FOG
FORT DODGE     CLOUDY    39  36  87 NE17      29.77F WCI  30
MARSHALLTOWN   CLOUDY    41  40  96 NE15      29.73F
CEDAR RAPIDS   RAIN      41  41 100 E12       29.75R FOG
$$

...NORTHERN ILLINOIS...


CITY           SKY/WX    TMP DP  RH WIND       PRES   REMARKS
CHICAGO-OHARE  RAIN      42  39  89 E13       29.87S FOG
CHICAGO-MIDWAY TSTM      43  41  93 E24G36    29.87R FOG
MOLINE         CLOUDY    44  41  89 E21G26    29.72F
ROCKFORD       LGT RAIN  41  38  89 E13G20    29.84F
PEORIA         LGT RAIN  45  43  93 E18G25    29.71F
$$

NOTE: "FAIR" INDICATES FEW OR NO CLOUDS BELOW 12,000 FEET WITH NO
SIGNIFICANT WEATHER AND/OR OBSTRUCTIONS TO VISIBILITY. WIND
SPEEDS ARE IN MILES-PER-HOUR.




USA.gov is the U.S. government's official web portal to all federal, state and local government web resources and services.